Location: Blandford
(50.8667°N, 2.1667°W)
Time: 18:01:59
(UTC+00:00)

STARLINK-1230 - Pass Details

Date: 09 April 2020
Orbit: 549 x 551 km, 53.0° (Epoch: 04 June)

Event Time Altitude Azimuth Distance (km) Brightness Sun altitude
Rises 20:51:13 0° 291° (WNW) 2,785 8.7 -17.2°
Reaches altitude 10° 20:53:32 10° 285° (WNW) 1,884 7.4 -17.5°
Maximum altitude 20:57:39 48° 212° (SSW) 756 4.2 -18.0°
Enters shadow 20:58:55 36° 165° (SSE) 919 4.3 -18.2°
